This demonstration page uses our WeatherBlox Daily Observations layout. Learn more.

Left ArrowRight Arrow

39.92423, -83.80882

Hourly Observations for December 23, 2015

Temp ( °F °C ) Dew Point ( °F °C ) Humidity (%) Winds ( mph kmh ) Pressure ( in mb ) Visibility ( mi km ) Precip ( " mm )
12:56 am 00:56 Mostly Cloudy 52 11.1 51 10.5 96 96 SE 9 15 29.86 1011 10 16.0934 0 0
1:56 am 01:56 Mostly Cloudy 53 11.6 53 11.6 100 100 SE 9 15 29.85 1011 10 16.0934 0 0
2:21 am 02:21 Mostly Cloudy 54 12 54 12 100 100 SE 6 9 29.85 1011 10 16.0934 0 0
2:44 am 02:44 Cloudy 54 12 54 12 100 100 SE 8 13 29.85 1011 10 16.0934 0 0
2:56 am 02:56 Cloudy 54 12.2 53 11.6 96 96 SE 7 11 29.85 1011 10 16.0934 0 0
3:28 am 03:28 Mostly Cloudy 54 12 54 12 100 100 SE 8 13 29.85 1011 10 16.0934 0 0
3:56 am 03:56 Cloudy 55 12.7 55 12.7 100 100 SE 7 11 29.83 1010 10 16.0934 0 0
4:37 am 04:37 Cloudy 55 13 55 13 100 100 SE 8 13 29.83 1010 10 16.0934 0 0
4:47 am 04:47 Cloudy 55 13 55 13 100 100 SE 8 13 29.83 1010 10 16.0934 0 0
4:56 am 04:56 Mostly Cloudy 55 12.7 55 12.7 100 100 SE 8 13 29.82 1010 10 16.0934 0 0
5:56 am 05:56 Partly Cloudy 55 12.7 55 12.7 100 100 SE 10 17 29.8 1009 10 16.0934 0 0
6:35 am 06:35 Mostly Cloudy 55 13 55 13 100 100 SE 9 15 29.8 1009 10 16.0934 0 0
6:56 am 06:56 Cloudy 56 13.3 55 12.7 96 96 SE 10 17 29.8 1009 10 16.0934 0 0
7:56 am 07:56 Cloudy with Light Rain 56 13.3 56 13.3 100 100 SSE 9 15 29.79 1009 5 8.0467 0.01 0.254
8:03 am 08:03 Cloudy with Rain 55 13 55 13 100 100 SSE 10 17 29.8 1009 2 3.21868 0.03 0.762
8:05 am 08:05 Mostly Cloudy with Rain 55 13 55 13 100 100 SSE 12 19 29.8 1009 2 3.21868 0.04 1.016
8:13 am 08:13 Cloudy with Light Rain 55 13 55 13 100 100 SSE 12 19 29.77 1008 5 8.0467 0.04 1.016
8:26 am 08:26 Cloudy with Light Rain 57 14 57 14 100 100 SSE 9 15 29.77 1008 10 16.0934 0.05 1.27
8:56 am 08:56 Mostly Cloudy 57 13.8 57 13.8 100 100 SSE 8 13 29.76 1008 10 16.0934 0.06 1.524
9:11 am 09:11 Partly Cloudy 57 14 57 14 100 100 SSE 10 17 29.77 1008 10 16.0934 0 0
9:56 am 09:56 Mostly Sunny 59 15 59 15 100 100 SSE 13 20 29.76 1008 10 16.0934 0 0
10:29 am 10:29 Mostly Cloudy 59 15 59 15 100 100 SSE 9 15 29.71 1006 10 16.0934 0 0
10:56 am 10:56 Cloudy 60 15.5 59 15 97 97 SSE 12 19 29.74 1007 10 16.0934 0 0
11:05 am 11:05 Mostly Cloudy 61 16 59 15 94 94 SE 13 20 29.71 1006 10 16.0934 0 0
11:31 am 11:31 Mostly Cloudy 61 16 59 15 94 94 SE 13 20 29.68 1005 10 16.0934 0 0
11:56 am 11:56 Mostly Cloudy 61 16.1 59 15 93 93 SSE 12 19 29.68 1005 10 16.0934 0 0
12:09 pm 12:09 Mostly Cloudy 61 16 59 15 94 94 SSE 13 20 29.65 1004 10 16.0934 0 0
12:56 pm 12:56 Mostly Cloudy 62 16.6 60 15.5 93 93 SSE 14 22 29.64 1004 10 16.0934 0 0
1:38 pm 13:38 Cloudy 63 17 61 16 94 94 SSE 15 24 29.59 1002 10 16.0934 0 0
1:56 pm 13:56 Cloudy 63 17.2 59 15 87 87 S 15 24 29.6 1003 10 16.0934 0 0
2:40 pm 14:40 Partly Cloudy 64 18 61 16 88 88 SSE 17 28 29.53 1000 10 16.0934 0 0
2:49 pm 14:49 Mostly Cloudy 64 18 59 15 83 83 SSE 16 26 29.53 1000 10 16.0934 0 0
2:56 pm 14:56 Mostly Cloudy 64 17.7 59 15 84 84 SSE 17 28 29.55 1001 10 16.0934 0 0
3:56 pm 15:56 Cloudy 64 17.7 59 15 84 84 SSE 16 26 29.54 1000 10 16.0934 0 0
4:56 pm 16:56 Cloudy 64 17.7 59 15 84 84 S 15 24 29.52 1000 10 16.0934 0 0
5:38 pm 17:38 Cloudy 64 18 59 15 83 83 S 13 20 29.53 1000 10 16.0934 0 0
5:56 pm 17:56 Cloudy 65 18.3 59 15 81 81 S 18 30 29.53 1000 10 16.0934 0 0
6:05 pm 18:05 Mostly Cloudy with Heavy Rain 63 17 57 14 83 83 SW 21 33 29.59 1002 2.5 4.02335 0.04 1.016
6:09 pm 18:09 Mostly Cloudy with Heavy Rain 61 16 57 14 88 88 SW 15 24 29.56 1001 1.75 2.816345 0.07 1.778
6:14 pm 18:14 Mostly Cloudy with Mist and Fog 57 14 55 13 94 94 SSW 16 26 29.56 1001 3 4.82802 0.08 2.032
6:56 pm 18:56 Cloudy 56 13.3 54 12.2 93 93 S 9 15 29.58 1002 10 16.0934 0.08 2.032
7:56 pm 19:56 Cloudy with Light Rain 56 13.3 55 12.7 96 96 SSE 8 13 29.58 1002 10 16.0934 0.02 0.508
8:10 pm 20:10 Cloudy with Nearby Thunderstorms 55 13 55 13 100 100 WSW 15 24 29.68 1005 5 8.0467 0.08 2.032
8:14 pm 20:14 Cloudy with Mist and Fog 55 13 55 13 100 100 SSW 7 11 29.62 1003 1.75 2.816345 0.17 4.318
8:26 pm 20:26 Cloudy with Light Thunderstorms 55 13 55 13 100 100 SSW 9 15 29.62 1003 2.5 4.02335 0.22 5.588
8:34 pm 20:34 Cloudy with Thunderstorms 55 13 54 12 94 94 SW 8 13 29.62 1003 3 4.82802 0.26 6.604
8:42 pm 20:42 Cloudy with Thunderstorms 55 13 54 12 94 94 SSE 5 7 29.62 1003 2.5 4.02335 0.29 7.366
8:56 pm 20:56 Cloudy with Light Thunderstorms 55 12.7 54 12.2 97 97 SSE 7 11 29.59 1002 2.5 4.02335 0.34 8.636
9:04 pm 21:04 Mostly Cloudy with Mist and Fog 55 13 54 12 94 94 SE 6 9 29.53 1000 3 4.82802 0.02 0.508
9:06 pm 21:06 Cloudy with Light Rain 55 13 55 13 100 100 SE 7 11 29.53 1000 3 4.82802 0.03 0.762
9:11 pm 21:11 Mostly Cloudy with Light Thunderstorms 55 13 55 13 100 100 SE 8 13 29.53 1000 3 4.82802 0.05 1.27
9:22 pm 21:22 Cloudy with Thunderstorms 55 13 55 13 100 100 ESE 9 15 29.53 1000 5 8.0467 0.09 2.286
9:26 pm 21:26 Mostly Cloudy with Rain 55 13 55 13 100 100 SE 12 19 29.53 1000 4 6.43736 0.11 2.794
9:34 pm 21:34 Mostly Cloudy with Mist and Fog 55 13 55 13 100 100 SE 14 22 29.53 1000 5 8.0467 0.13 3.302
9:49 pm 21:49 Mostly Cloudy with Light Rain 55 13 55 13 100 100 S 10 17 29.53 1000 5 8.0467 0.17 4.318
9:56 pm 21:56 Mostly Cloudy with Light Rain 56 13.3 55 12.7 96 96 SE 16 26 29.49 999 10 16.0934 0.18 4.572
10:56 pm 22:56 Clear 57 13.8 55 12.7 93 93 S 18 30 29.52 1000 10 16.0934 0 0.0254
11:41 pm 23:41 Mostly Cloudy 57 14 55 13 94 94 S 16 26 29.53 1000 10 16.0934 0 0
11:48 pm 23:48 Mostly Cloudy 55 13 55 13 100 100 S 18 30 29.53 1000 10 16.0934 0 0
11:56 pm 23:56 Partly Cloudy 56 13.3 55 12.7 96 96 SSW 14 22 29.57 1001 10 16.0934 0 0

Powered by AerisWeather